When you browse on this site, cookies collect data to enhance your experience and personalize the content and advertising you see.
Visit our Privacy Policy to learn more. By continuing to use the site, you agree to this use of cookies and data.
  • în România
  • Lista ţărilor
  • Pe 7 zile
  • Temperatura apei
  • Meteo pe hartă
  • Widget-uri
  • user-avatar
    Intrare

    Meteo pe oră la Bujumbura

    Astăzi, 4 Iunie, Joi

    Timp Temperatura Precipitaţii Vânt Presiune Umiditate
    00:00 +23°C° 0 mm 1 m/s 693 mmHg 80%
    01:00 +23°C° 0 mm 1 m/s 693 mmHg 81%
    02:00 +22°C° 0 mm 1 m/s 693 mmHg 81%
    03:00 +22°C° 0 mm 1 m/s 693 mmHg 81%
    04:00 +22°C° 0 mm 1 m/s 693 mmHg 81%
    05:00 +21°C° 0 mm 2 m/s 693 mmHg 81%
    06:00 +24°C° 0 mm 2 m/s 693 mmHg 76%
    07:00 +25°C° 0 mm 2 m/s 694 mmHg 72%
    08:00 +27°C° 0 mm 2 m/s 695 mmHg 68%
    09:00 +28°C° 0 mm 1 m/s 695 mmHg 63%
    10:00 +29°C° 0 mm 1 m/s 695 mmHg 59%
    11:00 +31°C° 0 mm 1 m/s 695 mmHg 54%
    12:00 +30°C° 0.1 mm 2 m/s 694 mmHg 57%
    13:00 +30°C° 0.1 mm 3 m/s 693 mmHg 61%
    14:00 +30°C° 0.1 mm 4 m/s 692 mmHg 64%
    15:00 +29°C° 0.3 mm 3 m/s 692 mmHg 69%
    16:00 +28°C° 0.3 mm 3 m/s 692 mmHg 74%
    17:00 +28°C° 0.3 mm 3 m/s 692 mmHg 79%
    18:00 +26°C° 0.1 mm 2 m/s 693 mmHg 81%
    19:00 +25°C° 0.1 mm 2 m/s 693 mmHg 83%
    20:00 +24°C° 0.1 mm 1 m/s 694 mmHg 85%
    21:00 +24°C° 0.1 mm 1 m/s 694 mmHg 85%
    22:00 +23°C° 0.1 mm 1 m/s 694 mmHg 84%
    23:00 +23°C° 0.1 mm 1 m/s 694 mmHg 83%

    Mâine, 5 Iunie, Vineri

    Timp Temperatura Precipitaţii Vânt Presiune Umiditate
    00:00 +23°C° 0 mm 1 m/s 694 mmHg 83%
    01:00 +22°C° 0 mm 1 m/s 694 mmHg 83%
    02:00 +22°C° 0 mm 1 m/s 693 mmHg 83%
    03:00 +22°C° 0 mm 1 m/s 693 mmHg 83%
    04:00 +22°C° 0 mm 1 m/s 694 mmHg 83%
    05:00 +22°C° 0 mm 1 m/s 694 mmHg 84%
    06:00 +23°C° 0 mm 1 m/s 694 mmHg 80%
    07:00 +25°C° 0 mm 1 m/s 695 mmHg 76%
    08:00 +26°C° 0 mm 1 m/s 695 mmHg 72%
    09:00 +28°C° 0 mm 1 m/s 695 mmHg 66%
    10:00 +29°C° 0 mm 1 m/s 695 mmHg 60%
    11:00 +31°C° 0 mm 1 m/s 695 mmHg 54%
    12:00 +31°C° 0.1 mm 2 m/s 694 mmHg 56%
    13:00 +31°C° 0.1 mm 2 m/s 693 mmHg 57%
    14:00 +31°C° 0.1 mm 3 m/s 693 mmHg 59%
    15:00 +30°C° 0.2 mm 3 m/s 693 mmHg 65%
    16:00 +29°C° 0.2 mm 3 m/s 692 mmHg 71%
    17:00 +28°C° 0.2 mm 3 m/s 692 mmHg 77%
    18:00 +27°C° 0.1 mm 3 m/s 693 mmHg 79%
    19:00 +26°C° 0.1 mm 2 m/s 693 mmHg 82%
    20:00 +24°C° 0.1 mm 2 m/s 694 mmHg 84%
    21:00 +24°C° 0 mm 1 m/s 694 mmHg 83%
    22:00 +24°C° 0 mm 1 m/s 694 mmHg 83%
    23:00 +24°C° 0 mm 1 m/s 694 mmHg 82%

    Poimâine, 6 Iunie, Sâmbătă

    Timp Temperatura Precipitaţii Vânt Presiune Umiditate
    00:00 +23°C° 0 mm 1 m/s 694 mmHg 83%
    01:00 +23°C° 0 mm 1 m/s 694 mmHg 83%
    02:00 +23°C° 0 mm 1 m/s 694 mmHg 84%
    03:00 +22°C° 0 mm 1 m/s 694 mmHg 83%
    04:00 +22°C° 0 mm 1 m/s 694 mmHg 82%
    05:00 +21°C° 0 mm 2 m/s 693 mmHg 82%
    06:00 +23°C° 0 mm 2 m/s 694 mmHg 78%
    07:00 +25°C° 0 mm 2 m/s 695 mmHg 75%
    08:00 +26°C° 0 mm 2 m/s 695 mmHg 71%
    09:00 +28°C° 0 mm 1 m/s 695 mmHg 63%
    10:00 +30°C° 0 mm 1 m/s 695 mmHg 56%
    11:00 +32°C° 0 mm 1 m/s 695 mmHg 48%
    12:00 +32°C° 0 mm 2 m/s 694 mmHg 50%
    13:00 +32°C° 0 mm 2 m/s 693 mmHg 51%
    14:00 +33°C° 0 mm 3 m/s 693 mmHg 53%
    15:00 +31°C° 0.1 mm 3 m/s 692 mmHg 60%
    16:00 +30°C° 0.1 mm 3 m/s 692 mmHg 66%
    17:00 +29°C° 0.1 mm 4 m/s 692 mmHg 73%
    18:00 +27°C° 0.3 mm 3 m/s 693 mmHg 77%
    19:00 +26°C° 0.3 mm 3 m/s 693 mmHg 80%
    20:00 +24°C° 0.3 mm 2 m/s 694 mmHg 83%
    21:00 +24°C° 0.1 mm 2 m/s 694 mmHg 82%
    22:00 +24°C° 0.1 mm 1 m/s 693 mmHg 82%
    23:00 +23°C° 0.1 mm 1 m/s 693 mmHg 82%

    7 Iunie, Duminică

    Timp Temperatura Precipitaţii Vânt Presiune Umiditate
    00:00 +23°C° 0 mm 1 m/s 693 mmHg 82%
    01:00 +23°C° 0 mm 1 m/s 693 mmHg 82%
    02:00 +22°C° 0 mm 1 m/s 693 mmHg 82%
    03:00 +22°C° 0 mm 1 m/s 693 mmHg 82%
    04:00 +22°C° 0 mm 1 m/s 693 mmHg 82%
    05:00 +22°C° 0 mm 1 m/s 693 mmHg 81%
    06:00 +23°C° 0 mm 1 m/s 693 mmHg 78%
    07:00 +25°C° 0 mm 1 m/s 694 mmHg 75%
    08:00 +26°C° 0 mm 1 m/s 694 mmHg 71%
    09:00 +28°C° 0 mm 1 m/s 694 mmHg 65%
    10:00 +30°C° 0 mm 1 m/s 694 mmHg 58%
    11:00 +32°C° 0 mm 1 m/s 694 mmHg 52%
    12:00 +31°C° 0.1 mm 2 m/s 693 mmHg 54%
    13:00 +31°C° 0.1 mm 2 m/s 693 mmHg 56%
    14:00 +30°C° 0.1 mm 3 m/s 692 mmHg 58%
    15:00 +29°C° 0.3 mm 3 m/s 692 mmHg 65%
    16:00 +28°C° 0.3 mm 3 m/s 692 mmHg 72%
    17:00 +27°C° 0.3 mm 3 m/s 692 mmHg 79%
    18:00 +26°C° 0.4 mm 3 m/s 692 mmHg 81%
    19:00 +25°C° 0.4 mm 2 m/s 693 mmHg 83%
    20:00 +24°C° 0.4 mm 2 m/s 693 mmHg 84%
    21:00 +24°C° 0.1 mm 2 m/s 693 mmHg 84%
    22:00 +24°C° 0.1 mm 1 m/s 694 mmHg 83%
    23:00 +24°C° 0.1 mm 1 m/s 694 mmHg 83%

    8 Iunie, Luni

    Timp Temperatura Precipitaţii Vânt Presiune Umiditate
    00:00 +24°C° 0 mm 1 m/s 693 mmHg 82%
    01:00 +24°C° 0 mm 1 m/s 693 mmHg 82%
    02:00 +23°C° 0 mm 1 m/s 692 mmHg 82%
    03:00 +23°C° 0 mm 1 m/s 692 mmHg 82%
    04:00 +23°C° 0 mm 1 m/s 692 mmHg 82%
    05:00 +22°C° 0 mm 1 m/s 692 mmHg 81%
    06:00 +24°C° 0 mm 1 m/s 693 mmHg 78%
    07:00 +25°C° 0 mm 1 m/s 693 mmHg 74%
    08:00 +26°C° 0 mm 1 m/s 693 mmHg 70%
    09:00 +28°C° 0 mm 1 m/s 693 mmHg 65%
    10:00 +30°C° 0 mm 1 m/s 693 mmHg 59%
    11:00 +31°C° 0 mm 1 m/s 693 mmHg 54%
    12:00 +30°C° 0.5 mm 2 m/s 692 mmHg 59%
    13:00 +30°C° 0.5 mm 2 m/s 691 mmHg 65%
    14:00 +29°C° 0.5 mm 3 m/s 691 mmHg 70%
    15:00 +28°C° 0.5 mm 3 m/s 691 mmHg 73%
    16:00 +28°C° 0.5 mm 3 m/s 691 mmHg 77%
    17:00 +27°C° 0.5 mm 3 m/s 691 mmHg 80%
    18:00 +26°C° 0.2 mm 2 m/s 691 mmHg 81%
    19:00 +25°C° 0.2 mm 2 m/s 692 mmHg 82%
    20:00 +25°C° 0.2 mm 2 m/s 692 mmHg 83%
    21:00 +24°C° 0.2 mm 1 m/s 692 mmHg 84%
    22:00 +24°C° 0.2 mm 1 m/s 692 mmHg 84%
    23:00 +24°C° 0.2 mm 1 m/s 692 mmHg 85%

    9 Iunie, Marţi

    Timp Temperatura Precipitaţii Vânt Presiune Umiditate
    00:00 +24°C° 0.1 mm 1 m/s 692 mmHg 85%
    01:00 +23°C° 0.1 mm 1 m/s 692 mmHg 84%
    02:00 +23°C° 0.1 mm 1 m/s 692 mmHg 84%
    03:00 +23°C° 0 mm 1 m/s 692 mmHg 84%
    04:00 +22°C° 0 mm 1 m/s 692 mmHg 83%
    05:00 +22°C° 0 mm 1 m/s 692 mmHg 83%
    06:00 +23°C° 0 mm 1 m/s 692 mmHg 81%
    07:00 +24°C° 0 mm 1 m/s 693 mmHg 78%
    08:00 +26°C° 0 mm 1 m/s 693 mmHg 76%
    09:00 +27°C° 0.1 mm 1 m/s 693 mmHg 70%
    10:00 +29°C° 0.1 mm 1 m/s 693 mmHg 64%
    11:00 +30°C° 0.1 mm 1 m/s 693 mmHg 58%
    12:00 +30°C° 0.6 mm 2 m/s 692 mmHg 62%
    13:00 +30°C° 0.6 mm 2 m/s 691 mmHg 65%
    14:00 +29°C° 0.6 mm 3 m/s 691 mmHg 69%
    15:00 +29°C° 0.5 mm 3 m/s 690 mmHg 72%
    16:00 +28°C° 0.5 mm 3 m/s 690 mmHg 75%
    17:00 +28°C° 0.5 mm 3 m/s 690 mmHg 78%
    18:00 +27°C° 0.2 mm 2 m/s 691 mmHg 79%
    19:00 +25°C° 0.2 mm 2 m/s 691 mmHg 81%
    20:00 +24°C° 0.2 mm 2 m/s 692 mmHg 82%
    21:00 +24°C° 0.1 mm 1 m/s 692 mmHg 83%
    22:00 +23°C° 0.1 mm 1 m/s 692 mmHg 83%
    23:00 +23°C° 0.1 mm 1 m/s 693 mmHg 83%
    Arată mai mult